Location: ?????
(31.8092°N, 35.2590°E)
Time: 03:40:07
(UTC+00:00)

Lacrosse 5 - Pass Details

Date: 28 October 2021
Orbit: 714 x 724 km, 57.0° (Epoch: 28 August)

Event Time Altitude Azimuth Distance (km) Brightness Sun altitude
Exits shadow 01:15:49 29° 118° (ESE) 1,294 3.5 -33.7°
Drops below altitude 10° 01:18:21 10° 130° (SE) 2,189 4.8 -33.2°
Sets 01:20:44 0° 134° (SE) 3,105 5.7 -32.7°
